Probability
0 0 0 0 0 0 0 0 1 2 2 2 1 1 1 0 0 0 0 0 0 0 0 0 0 0 0 0 0 0 0 0 0 0 0 0 0 0 1 1 0 0 0 0 0 0 0 0 0
0 0 0 0 0 0 0 0 0 1 2 2 2 1 1 1 0 0 0 0 0 0 0 0 0 0 0 0 0 0 0 0 0 0 0 0 0 1 2 1 0 0 0 0 0 0 0 0 0
0 0 0 0 0 0 0 0 0 0 1 3 3 2 1 1 0 0 0 0 0 0 0 0 0 0 0 0 0 0 0 0 0 0 0 0 1 2 2 1 0 1 1 0 0 0 0 0 0
0 0 0 0 0 0 0 0 0 0 1 2 3 2 1 0 0 0 0 0 0 0 0 0 0 0 0 0 0 0 0 0 0 0 0 1 1 1 1 1 1 2 2 1 0 0 0 0 0
0 0 0 0 0 0 0 0 0 1 1 3 4 3 1 0 0 0 0 0 0 0 0 0 0 0 0 0 0 0 0 0 0 0 0 0 0 0 1 1 2 2 2 1 0 0 0 0 0
0 0 0 0 0 0 0 0 1 2 3 4 6 4 1 0 1 2 1 0 0 0 0 0 0 0 0 0 0 0 0 0 0 0 0 0 0 0 0 1 1 1 1 0 0 0 0 0 0
0 0 0 0 0 0 0 0 1 4 5 5 6 5 3 1 2 3 2 1 0 0 0 0 0 0 0 0 0 0 0 0 0 0 0 0 0 0 0 0 0 0 0 0 0 0 0 0 0
0 0 0 0 0 0 0 0 2 5 7 6 5 6 4 3 4 5 4 1 0 0 1 0 0 0 0 0 0 0 0 0 0 0 0 0 0 0 0 0 0 0 0 0 0 0 0 0 0
0 0 0 0 0 0 0 0 2 5 7 6 4 6 8 8 7 8 7 3 2 1 1 0 0 0 0 0 0 0 0 0 0 0 0 0 0 0 0 0 0 0 0 0 0 0 0 0 0
0 0 0 0 0 0 0 1 2 5 6 5 6 12 17 15 9 8 7 5 5 4 3 1 0 0 0 0 0 0 0 0 0 0 0 0 0 0 0 0 0 0 0 0 0 0 0 0 0
0 0 0 0 0 0 0 1 3 5 5 5 12 23 28 20 10 5 4 4 6 6 4 1 0 0 0 0 0 0 0 0 0 0 0 0 0 0 0 0 0 0 0 0 0 0 0 0 0
0 0 0 0 0 0 0 1 2 4 4 7 17 28 29 20 9 3 1 2 4 4 3 1 0 0 0 0 0 0 0 0 0 0 0 0 0 0 0 0 0 0 0 0 0 0 0 0 0
0 0 0 0 0 0 0 0 1 3 5 11 18 23 22 16 9 3 1 1 2 3 3 2 1 0 0 0 0 0 0 0 0 0 0 0 0 0 0 0 0 0 0 0 0 0 0 0 0
0 0 0 0 0 0 0 0 1 2 7 14 18 17 15 13 9 5 2 1 2 3 3 2 1 0 0 1 1 0 0 0 0 0 0 0 0 0 0 0 0 0 0 0 0 0 0 0 0
0 0 0 0 0 0 0 0 1 2 7 13 15 14 11 9 8 7 4 4 4 3 2 1 1 0 1 2 2 1 0 0 0 0 0 0 0 0 0 0 0 0 0 0 0 0 0 0 0
0 0 0 0 0 0 0 0 0 1 5 9 10 9 7 5 4 5 5 7 7 5 4 3 2 2 2 3 3 2 1 0 0 0 0 0 0 0 0 0 0 0 0 0 0 0 0 0 0
0 0 0 0 0 0 0 0 0 2 5 7 7 6 5 3 1 2 5 9 9 7 6 5 4 4 3 3 3 2 1 0 0 0 0 0 0 0 0 0 0 0 0 0 0 0 0 0 0
0 0 0 0 0 0 0 0 2 4 5 7 6 5 4 2 1 3 6 9 10 10 9 9 7 4 2 2 2 1 0 0 0 0 0 0 0 0 1 1 0 0 0 0 0 0 0 0 0
0 0 0 0 0 0 0 1 3 4 4 5 5 4 2 1 2 5 9 12 14 13 13 13 11 7 3 1 1 0 0 1 0 0 0 0 0 1 2 2 1 0 0 0 0 0 0 0 0
0 0 0 0 0 0 0 1 2 2 2 2 2 2 1 1 4 8 13 18 20 18 16 15 15 11 5 2 1 0 1 1 0 0 0 0 0 1 2 2 2 1 0 0 0 0 0 0 0
0 0 0 0 0 0 0 2 2 1 0 0 1 1 1 3 6 10 16 22 24 21 18 18 16 11 7 4 3 2 2 2 1 1 1 1 1 1 1 1 2 2 1 0 0 0 0 0 0
0 0 0 0 0 0 0 1 1 0 0 0 1 1 3 6 8 11 18 25 28 26 22 20 16 10 6 4 4 5 6 5 3 3 2 2 1 1 1 2 2 1 1 0 0 0 0 0 0
0 0 0 0 0 0 0 0 0 0 0 1 3 4 6 8 9 13 19 26 31 31 28 24 20 13 7 6 7 8 8 7 5 5 4 2 2 2 2 2 2 1 1 1 0 0 0 0 1
0 0 0 0 0 0 0 0 0 0 1 2 4 7 8 9 11 15 20 27 33 35 32 29 25 19 13 10 11 11 10 8 6 5 5 3 2 2 2 2 2 3 2 1 0 0 0 1 2
0 0 0 0 0 0 0 0 0 0 1 2 5 9 11 12 14 17 22 28 35 37 36 34 31 25 19 16 15 14 12 10 8 5 4 3 1 1 1 1 2 3 3 2 0 0 0 1 2
0 0 0 0 0 0 0 0 0 0 0 2 7 11 13 13 15 18 23 31 37 39 40 39 36 30 24 21 18 15 12 10 8 5 3 2 1 0 0 1 2 3 3 2 1 0 0 1 1
0 0 0 0 0 0 0 0 0 0 0 3 8 11 12 13 15 18 24 31 37 39 41 42 40 33 28 26 22 16 11 9 7 5 4 3 2 1 0 0 1 1 3 3 1 0 0 0 0
0 0 0 0 0 0 0 0 0 0 0 2 6 9 11 14 16 19 24 33 38 39 39 40 39 34 30 29 25 19 12 9 7 6 5 4 3 2 1 0 0 1 2 3 3 2 1 1 0
0 0 0 0 0 0 0 0 0 0 0 1 3 7 12 16 18 20 25 33 40 41 39 38 35 31 29 28 25 20 14 10 8 6 5 4 3 4 4 2 1 1 2 5 5 5 4 2 1
0 0 0 0 0 0 0 0 0 0 1 1 2 5 12 17 19 21 25 32 39 41 39 36 33 29 27 27 24 18 14 12 9 6 5 4 3 4 5 4 3 2 3 5 6 6 6 3 1
Wind_Speed
2 1 2 2 5 6 3 3 1 2 2 2 5 6 7 4 2 4 4 9 12 10 7 11 14 14 14 14 15 15 16 16 16 16 16 16 16 16 16 16 16 16 16 16 16 16 16 16 16
1 2 1 4 7 4 3 3 1 2 4 5 6 6 6 5 5 8 6 9 12 10 7 9 14 14 14 14 14 15 15 15 15 15 15 15 15 15 15 15 15 16 16 16 16 16 16 16 15
1 1 3 5 4 3 1 1 2 4 3 3 5 5 5 5 7 5 6 12 11 8 7 9 15 15 14 14 14 14 15 15 15 15 14 15 14 15 15 15 15 15 15 15 15 15 15 15 14
2 3 5 6 3 2 3 2 3 4 4 5 5 6 5 5 5 7 13 13 11 8 6 10 15 15 14 14 14 14 14 14 14 14 14 14 14 14 14 14 14 14 14 14 14 14 14 13 13
4 4 6 4 2 2 1 2 3 3 3 4 4 5 4 4 10 14 13 12 11 8 6 9 15 15 14 14 13 13 13 13 13 13 13 13 13 13 13 13 13 13 13 14 14 13 13 12 13
5 5 6 2 3 2 0 2 3 4 4 4 4 5 3 5 12 13 11 10 9 8 7 8 14 15 14 13 13 13 13 13 13 13 13 13 13 12 12 12 12 13 13 13 13 12 11 11 12
5 5 3 1 1 2 0 2 4 3 4 3 5 6 4 7 8 11 10 9 7 7 6 5 7 9 13 13 12 12 12 12 12 12 12 12 12 12 11 11 11 12 12 12 12 11 10 11 11
4 5 3 0 0 1 1 2 3 4 4 4 5 8 8 10 11 11 10 8 7 6 5 5 5 5 5 7 11 12 12 12 12 12 12 11 11 11 11 10 10 11 11 11 11 10 10 10 10
4 6 1 2 2 2 2 3 2 4 5 3 3 5 8 17 16 13 11 8 7 7 5 5 5 5 5 5 8 9 10 10 10 9 11 9 4 5 6 8 9 10 10 9 9 9 9 9 8
5 3 4 4 3 3 2 3 5 5 4 2 5 9 17 18 16 16 15 14 12 10 7 5 6 5 5 5 4 3 3 4 4 4 5 4 4 3 5 6 8 9 9 8 8 8 8 6 4
4 5 4 3 3 3 3 3 4 8 5 7 12 19 21 19 16 15 14 13 12 11 10 7 6 5 5 3 3 2 2 3 4 4 5 4 3 2 3 2 3 3 5 4 5 5 3 3 3
2 4 3 3 3 3 4 4 4 7 6 7 15 22 22 21 18 17 15 13 10 10 10 8 7 6 4 4 3 3 3 2 3 3 4 3 2 2 2 2 2 2 2 3 3 2 3 3 3
2 2 2 3 3 4 4 5 4 4 3 12 17 19 19 19 16 12 11 11 10 11 10 9 8 7 5 4 4 4 3 3 3 3 3 4 3 2 2 1 1 2 2 2 2 2 2 2 2
2 2 3 2 1 2 4 2 3 3 9 15 18 18 17 16 15 12 11 12 12 12 10 9 9 8 6 5 4 4 3 3 3 3 3 4 3 3 2 2 1 1 1 1 1 2 2 1 2
1 2 4 2 1 1 4 1 4 4 12 14 16 16 15 13 13 14 14 13 12 12 10 10 10 8 7 6 5 4 3 3 3 3 3 4 4 3 3 2 2 1 1 1 1 2 2 1 1
3 3 2 4 1 1 5 4 4 7 13 13 13 14 14 12 13 12 12 10 10 10 10 10 11 9 8 6 5 4 4 4 3 3 3 4 4 4 3 3 2 2 2 2 2 1 1 1 1
4 1 1 4 2 2 3 4 3 7 12 12 13 14 13 11 11 11 12 11 11 11 11 11 9 10 9 7 5 4 4 4 4 3 3 4 5 5 4 3 2 3 2 2 2 1 2 1 1
4 2 1 2 2 1 2 4 3 7 10 11 12 11 12 14 15 12 12 12 11 10 10 10 9 9 8 6 4 3 3 4 3 4 4 5 5 6 5 3 4 3 3 2 2 2 1 1 1
4 3 1 3 2 0 3 5 5 7 8 9 10 11 13 14 10 10 11 12 11 10 10 11 10 9 8 6 6 5 5 4 4 4 5 6 6 6 5 4 4 4 4 4 3 2 2 1 1
2 1 2 3 2 1 3 4 3 6 10 11 13 14 14 10 9 11 12 12 13 13 13 11 11 11 10 8 6 3 3 3 4 4 5 6 6 7 6 5 5 5 4 4 4 3 2 1 2
3 4 3 2 4 4 2 5 2 2 3 4 7 9 10 12 13 13 13 14 13 14 14 12 11 10 10 8 4 3 2 2 2 3 4 6 7 7 6 6 5 5 5 5 5 5 5 3 2
4 5 5 2 1 3 1 2 6 3 3 6 8 8 9 10 10 11 12 13 14 14 11 11 11 10 9 9 8 8 6 6 6 4 4 5 6 6 7 7 7 6 5 5 6 5 4 4 3
6 3 3 2 3 0 1 2 8 2 4 9 9 10 10 10 11 12 13 13 12 11 10 10 9 9 9 9 9 9 6 5 3 3 5 5 5 6 7 7 6 6 5 6 6 5 5 4 4
4 5 6 6 5 1 3 4 7 5 8 7 8 9 9 10 10 10 9 8 7 8 8 9 10 9 9 10 9 9 8 7 5 5 5 5 4 4 6 7 6 6 6 6 6 6 6 5 5
5 6 4 3 3 5 3 3 10 8 7 9 9 8 8 8 9 9 9 9 8 9 9 9 10 9 9 10 9 9 9 8 9 7 7 6 4 4 6 6 6 6 6 6 5 5 6 6 6
6 10 9 6 5 4 1 5 9 6 5 5 5 4 4 6 7 9 10 10 10 10 9 9 10 9 9 10 9 8 8 6 6 6 6 6 5 5 5 6 6 7 6 6 6 5 6 5 6
8 5 7 8 3 0 4 6 8 3 3 2 1 3 4 6 7 8 8 9 9 9 9 9 9 8 8 9 8 7 7 7 6 6 6 5 5 5 6 6 6 6 6 6 6 5 5 5 6
7 10 7 7 6 2 3 4 5 5 4 3 2 3 4 4 6 7 7 7 7 7 7 6 7 8 8 7 7 7 7 7 6 5 6 6 5 5 5 6 6 6 6 6 5 5 5 5 5
5 5 6 5 6 7 3 8 7 6 5 5 4 4 5 6 6 6 6 5 5 6 6 7 6 6 6 6 6 6 6 6 6 6 6 5 5 5 6 6 6 6 5 5 5 5 5 6 5
6 8 9 7 4 5 5 9 5 4 4 4 3 2 3 4 5 5 5 5 5 6 6 6 6 6 5 5 5 6 5 5 5 5 5 5 5 5 5 5 5 5 5 5 6 6 6 6 6
Wind_Direction
251 191 149 98 58 50 35 341 51 76 64 72 103 98 102 85 120 140 127 135 132 135 138 136 131 124 120 118 117 116 115 115 115 115 115 116 116 116 115 113 111 109 108 107 107 107 107 106 106
171 175 98 61 72 57 345 324 51 81 126 114 90 81 79 72 73 105 126 139 135 134 131 135 133 129 125 122 119 117 115 116 116 115 116 116 116 116 115 113 112 111 110 109 109 108 108 108 108
232 170 76 66 81 139 213 296 103 93 98 88 81 69 76 104 118 123 142 137 129 128 129 142 136 131 127 124 121 119 118 117 116 117 117 117 117 117 116 115 114 113 112 112 111 110 110 110 111
81 45 51 64 70 211 191 184 131 109 64 56 90 76 69 94 126 131 136 137 130 127 133 145 138 134 131 128 126 123 121 120 119 119 119 119 119 119 118 116 116 115 115 114 113 112 112 112 114
61 70 57 42 334 270 202 169 133 103 81 70 86 85 55 39 112 129 137 138 135 132 135 144 141 139 135 133 130 128 126 124 123 122 121 120 120 120 120 118 117 117 116 115 114 113 112 114 117
56 63 73 28 327 326 182 158 121 99 94 91 90 92 67 118 128 138 138 136 138 137 135 143 147 144 141 139 136 133 130 128 128 126 125 123 122 121 121 120 120 119 118 117 116 115 113 117 119
92 84 109 160 320 355 102 109 121 121 110 120 113 101 113 142 140 135 131 129 131 132 131 136 143 145 146 144 140 138 136 134 132 131 129 127 124 123 122 122 122 121 121 120 119 117 114 118 119
114 96 77 41 95 262 168 109 119 122 114 113 117 139 161 161 141 128 126 126 129 128 129 130 128 129 135 142 146 145 143 140 137 135 133 130 129 127 124 121 123 123 123 122 121 118 113 117 119
86 75 113 213 184 234 171 126 109 101 115 121 118 150 149 142 139 136 138 142 151 150 138 135 132 129 128 138 153 148 147 146 141 138 136 124 99 102 116 128 130 127 126 125 122 119 112 110 115
87 119 217 214 193 187 181 157 152 127 137 122 87 105 130 144 150 154 160 166 169 169 163 149 144 140 140 151 132 121 124 124 112 106 108 99 96 107 119 135 134 131 127 124 119 115 105 95 95
137 182 223 235 209 177 167 164 151 140 190 193 161 148 150 156 162 167 171 175 175 171 171 162 154 148 145 133 127 112 107 108 109 113 113 111 100 96 91 86 104 103 106 90 93 87 84 97 107
165 230 220 231 185 165 169 158 166 187 217 172 157 154 158 166 173 177 176 176 171 172 175 166 160 153 152 141 137 128 127 126 127 130 130 124 117 112 109 95 91 83 84 91 82 86 90 103 120
202 253 257 244 230 192 165 178 186 212 139 130 142 155 168 173 177 179 175 172 172 178 177 171 167 165 159 147 154 149 147 146 146 144 146 144 143 146 137 122 113 109 103 108 107 98 93 108 127
243 267 297 288 256 194 160 177 158 199 135 139 154 167 177 179 177 174 174 177 180 182 180 173 174 171 163 163 164 156 158 156 155 164 170 164 159 159 156 149 146 141 127 121 117 110 102 111 134
307 344 342 340 297 189 115 64 218 165 144 153 168 174 180 184 182 185 184 181 182 182 178 177 177 172 172 173 176 167 163 161 170 179 180 178 175 174 168 169 179 182 147 131 108 94 85 105 128
51 52 346 303 347 97 129 225 232 156 155 167 176 180 186 190 192 189 183 179 179 177 177 180 184 177 179 178 176 164 164 173 183 181 180 189 190 183 174 181 197 178 147 138 130 118 101 103 132
33 85 250 303 330 101 139 235 233 168 170 178 183 187 190 191 195 192 185 181 180 179 178 180 184 180 181 178 175 171 169 184 188 182 186 195 195 189 180 188 195 168 153 157 171 140 143 154 166
193 176 222 260 304 70 220 247 242 181 182 187 189 190 193 198 200 189 182 181 180 179 179 182 184 180 174 170 167 170 179 190 189 190 199 195 194 191 183 186 187 169 163 170 166 153 137 152 166
154 147 233 260 271 234 243 256 243 191 186 191 195 197 201 206 192 177 178 179 177 179 181 185 184 179 172 174 180 183 193 191 194 200 201 196 195 191 187 190 182 178 183 187 176 157 157 162 136
148 162 277 302 333 247 266 281 256 195 199 199 199 202 205 197 177 178 179 180 183 186 187 188 190 184 183 187 183 176 167 183 192 196 198 199 198 193 195 189 188 185 180 180 181 167 158 170 159
190 192 211 256 349 11 43 334 314 253 233 223 216 211 207 198 190 184 183 186 186 190 191 192 192 189 187 178 160 142 127 119 172 195 200 203 200 197 195 192 192 190 187 193 193 180 175 181 185
228 216 195 195 63 308 58 282 287 266 256 234 225 213 210 201 192 188 186 187 190 193 187 188 186 186 185 176 176 175 182 190 197 192 197 198 198 200 198 192 194 191 192 197 199 191 184 173 190
204 193 169 163 152 333 354 162 281 301 249 243 230 217 211 199 191 190 192 191 190 185 183 183 181 185 182 182 187 188 195 195 177 174 190 199 201 203 202 196 193 194 198 203 201 189 191 189 191
156 74 56 51 81 211 228 168 267 237 224 240 231 220 210 196 188 186 187 177 176 175 179 181 182 188 184 185 189 193 194 185 175 186 197 202 200 204 207 202 197 199 201 204 205 200 197 201 201
120 97 48 17 29 242 252 189 245 247 238 233 230 220 205 190 178 174 171 173 178 178 181 183 185 190 187 188 193 197 198 191 193 194 198 197 198 205 208 203 198 200 204 202 199 201 205 201 203
166 142 155 176 200 259 280 226 251 260 264 257 236 217 188 176 176 177 176 177 181 181 180 184 189 193 190 193 197 198 198 197 200 199 193 198 204 210 204 203 203 205 204 206 200 206 213 207 211
139 173 158 127 145 135 281 285 298 284 292 286 216 173 181 177 173 170 170 175 177 180 184 186 189 193 194 195 193 194 197 200 203 198 194 201 207 208 205 205 206 207 206 206 199 210 216 213 220
144 145 114 123 141 203 288 279 255 264 260 271 229 190 185 169 163 162 168 178 177 176 173 177 189 194 195 191 192 195 196 200 200 194 198 202 205 206 202 206 207 205 204 202 200 208 211 213 222
116 111 113 117 144 150 209 265 233 228 225 223 224 202 175 166 163 163 170 171 159 157 161 172 186 185 185 189 191 191 191 192 190 196 202 203 201 198 204 205 203 201 203 201 203 213 211 218 225
151 158 145 145 182 163 165 261 270 229 227 217 213 179 149 148 151 157 152 146 154 161 165 174 185 186 185 183 185 192 185 178 186 197 199 197 198 196 199 198 201 205 205 205 208 217 217 219 223